$DATE,$TIME,DM0600B,DM0602B,DM0604B,DM0614B,DM0616B,DM0618B,DM0624B,DM0628B,DM0630B,DM0634B,DM0606B,DM0608B,DM0610B
09/11/94,00:00:00,0,0,0,0,19,10,28,83,44,0,27,25,30
09/11/94,00:05:00,0,0,0,0,18,10,28,80,45,0,38,37,24
09/11/94,00:10:00,0,0,0,0,20,11,30,80,45,0,25,29,35
09/11/94,00:15:00,0,0,0,0,20,12,32,80,44,0,35,32,24
09/11/94,00:20:00,0,0,0,0,19,11,29,80,44,0,29,38,31
09/11/94,00:25:00,0,0,0,0,19,11,29,80,44,0,29,27,31
09/11/94,00:30:00,0,0,0,0,22,13,34,80,44,0,38,39,23
09/11/94,00:35:00,0,0,0,0,21,12,33,80,44,0,25,25,36
09/11/94,00:40:00,0,0,0,0,20,12,31,80,44,0,37,35,25
09/11/94,00:45:00,0,0,0,0,18,10,27,80,59,0,26,35,32
09/11/94,00:50:00,0,0,0,0,19,11,29,80,44,0,32,30,31
09/11/94,00:55:00,0,0,0,0,20,12,31,80,44,0,33,40,22
09/11/94,01:00:00,0,0,0,0,19,11,29,80,44,0,28,26,37
09/11/94,01:05:00,0,0,0,0,20,11,29,80,44,0,39,38,23
09/11/94,01:10:00,0,0,0,0,16,10,26,80,44,0,25,26,34
09/11/94,01:15:00,0,0,0,0,15,9,24,80,44,0,36,34,31
09/11/94,01:20:00,0,0,0,0,16,10,25,80,44,0,28,37,23
09/11/94,01:25:00,0,0,0,0,16,9,25,80,52,0,30,28,36
09/11/94,01:30:00,0,0,0,0,17,9,26,80,42,0,37,40,23
09/11/94,01:35:00,0,0,0,0,16,9,24,80,35,0,26,25,36
09/11/94,01:40:00,0,0,0,0,16,9,26,80,44,0,38,36,29
09/11/94,01:45:00,0,0,0,0,12,7,20,80,44,0,26,32,25
09/11/94,01:50:00,2,0,8,0,13,8,20,80,44,0,33,31,36
09/11/94,01:55:00,1,0,1,0,12,7,19,80,44,0,33,42,24
09/11/94,02:00:00,0,0,0,0,10,6,16,80,44,0,29,26,38
09/11/94,02:05:00,0,0,0,0,10,6,16,80,44,0,40,37,27
09/11/94,02:10:00,0,0,0,0,10,6,16,80,44,0,25,31,28
09/11/94,02:15:00,5,0,10,0,11,6,17,80,44,0,35,32,35
09/11/94,02:20:00,0,0,0,0,12,7,20,80,44,0,31,42,23
09/11/94,02:25:00,0,0,0,0,13,8,20,81,44,0,30,26,39
09/11/94,02:30:00,0,0,3,0,13,7,21,80,44,0,40,38,27
09/11/94,02:35:00,2,0,8,0,11,7,18,80,44,0,25,29,29
09/11/94,02:40:00,0,0,0,0,12,7,19,80,44,0,37,33,34
09/11/94,02:45:00,0,0,0,0,11,7,18,80,44,0,29,42,24
09/11/94,02:50:00,0,0,0,0,11,7,18,80,48,0,31,27,40
09/11/94,02:55:00,0,0,0,0,10,7,17,80,48,0,40,39,27
09/11/94,03:00:00,0,0,0,0,9,6,15,81,48,0,26,30,33
09/11/94,03:05:00,0,0,0,0,7,5,12,80,48,0,38,32,32
09/11/94,03:10:00,0,0,0,0,7,5,12,80,48,0,29,42,26
09/11/94,03:15:00,0,0,0,0,7,4,12,80,48,0,33,26,38
09/11/94,03:20:00,0,0,0,0,6,4,11,80,48,0,41,36,26
09/11/94,03:25:00,0,0,0,0,6,4,11,80,48,0,26,40,39
09/11/94,03:30:00,0,0,0,0,6,4,10,80,48,0,38,28,29
09/11/94,03:35:00,0,0,0,0,6,4,10,81,48,0,32,41,30
09/11/94,03:40:00,0,0,0,0,5,4,9,84,48,0,31,41,34
09/11/94,03:45:00,0,0,0,0,5,4,9,84,64,0,42,41,26
09/11/94,03:50:00,0,0,0,0,4,3,8,84,48,0,26,30,39
09/11/94,03:55:00,0,0,0,0,4,3,8,84,48,0,37,35,26
09/11/94,04:00:00,0,0,0,0,4,3,7,84,48,0,35,41,38
09/11/94,04:05:00,0,0,0,0,4,3,7,84,48,0,31,28,30
09/11/94,04:10:00,0,0,0,0,3,3,7,84,48,0,41,41,35
09/11/94,04:15:00,0,0,0,0,3,3,6,84,48,0,27,29,33
09/11/94,04:20:00,0,0,0,0,3,2,6,81,48,0,37,34,27
09/11/94,04:25:00,0,0,0,0,3,2,6,84,80,0,35,43,37
09/11/94,04:30:00,0,0,0,0,3,2,6,84,48,0,31,27,26
09/11/94,04:35:00,0,0,0,0,2,2,5,84,48,0,42,39,40
09/11/94,04:40:00,0,0,0,0,2,2,4,84,48,0,27,42,29
09/11/94,04:45:00,0,0,0,0,2,1,4,85,48,0,37,40,37
09/11/94,04:50:00,0,0,0,0,1,1,3,85,48,0,33,43,32
09/11/94,04:55:00,0,0,0,0,1,1,3,85,48,0,31,29,30
09/11/94,05:00:00,0,0,0,0,1,1,2,85,48,0,42,41,35
09/11/94,05:05:00,0,0,0,0,0,0,2,85,48,0,27,30,26
09/11/94,05:10:00,0,0,0,0,0,0,1,85,48,0,38,35,40
09/11/94,05:15:00,0,0,0,0,0,0,1,85,48,0,35,44,27
09/11/94,05:20:00,0,0,0,0,0,0,1,85,48,0,31,39,41
09/11/94,05:25:00,0,0,0,0,0,0,0,159,48,0,42,42,28
09/11/94,05:30:00,0,0,0,0,0,0,0,87,48,0,41,41,42
09/11/94,05:35:00,0,0,0,0,0,0,0,80,48,0,41,42,29
09/11/94,05:40:00,0,0,0,0,0,0,0,163,48,0,28,33,36
09/11/94,05:45:00,0,0,0,0,0,0,0,80,48,0,36,35,36
09/11/94,05:50:00,0,0,0,0,0,0,0,80,48,0,38,41,26
09/11/94,05:55:00,0,0,0,0,0,0,0,80,48,0,30,29,40
09/11/94,06:00:00,0,0,0,0,0,0,0,80,48,0,41,40,26
09/11/94,06:05:00,0,0,0,0,0,0,0,80,48,0,28,36,40
09/11/94,06:10:00,0,0,0,0,0,0,0,80,48,0,36,32,27
09/11/94,06:15:00,0,0,0,0,0,0,0,80,48,0,40,43,39
09/11/94,06:20:00,0,0,0,0,0,0,0,79,48,0,29,27,30
09/11/94,06:25:00,0,0,0,0,0,0,0,79,48,0,40,38,36
09/11/94,06:30:00,0,0,0,0,0,0,0,80,48,0,28,43,33
09/11/94,06:35:00,0,0,0,0,0,0,0,79,48,0,34,27,29
09/11/94,06:40:00,0,0,0,0,0,0,0,79,48,0,43,40,36
09/11/94,06:45:00,0,0,0,0,0,0,0,79,52,0,27,37,26
09/11/94,06:50:00,0,0,0,0,0,0,0,80,40,0,39,31,40
09/11/94,06:55:00,0,0,0,0,0,0,0,79,40,0,34,43,27
09/11/94,07:00:00,0,0,4,0,0,0,0,80,48,0,32,31,42
09/11/94,07:05:00,0,0,3,0,0,0,0,79,48,0,42,34,28
09/11/94,07:10:00,0,0,0,0,0,0,0,80,48,0,32,44,36
09/11/94,07:15:00,0,0,0,0,0,0,0,80,48,0,33,38,33
09/11/94,07:20:00,4,0,4,0,0,0,0,80,48,0,42,42,30
09/11/94,07:25:00,0,0,0,0,0,0,0,79,48,0,28,42,36
09/11/94,07:30:00,0,0,0,0,0,0,0,158,48,0,40,42,27
09/11/94,07:35:00,0,0,0,0,0,0,0,79,49,0,41,43,40
09/11/94,07:40:00,1,0,2,0,0,0,0,82,49,0,29,41,27
09/11/94,07:45:00,0,0,0,0,0,0,0,82,49,0,42,43,42
09/11/94,07:50:00,1,0,1,0,0,0,0,82,49,0,27,42,28
09/11/94,07:55:00,0,0,0,0,0,0,0,82,49,0,36,43,40
09/11/94,08:00:00,0,0,0,0,0,0,0,82,49,0,40,42,30
09/11/94,08:05:00,0,0,0,0,0,0,0,82,49,0,29,43,37
09/11/94,08:10:00,0,0,0,0,0,0,0,82,49,0,41,42,33
09/11/94,08:15:00,0,0,0,0,0,0,0,82,52,0,29,43,29
09/11/94,08:20:00,0,0,0,0,0,0,0,82,49,0,34,41,37
09/11/94,08:25:00,0,0,0,0,0,0,0,82,49,0,43,42,27
09/11/94,08:30:00,0,0,0,0,0,0,0,82,49,0,28,34,40
09/11/94,08:35:00,0,0,0,0,0,0,0,82,49,0,40,34,27
09/11/94,08:40:00,0,0,0,0,0,0,0,82,49,0,35,44,41
09/11/94,08:45:00,0,0,0,0,0,0,0,82,49,0,32,29,29
09/11/94,08:50:00,0,0,0,0,0,0,0,82,49,0,43,41,38
09/11/94,08:55:00,0,0,0,0,0,0,0,82,49,0,27,43,31
09/11/94,09:00:00,0,0,0,0,0,0,0,82,49,0,38,40,34
09/11/94,09:05:00,0,0,0,0,0,0,0,80,48,0,37,41,35
09/11/94,09:10:00,0,0,0,0,0,0,0,80,48,0,30,29,28
09/11/94,09:15:00,0,0,0,0,0,0,0,80,48,0,42,42,38
09/11/94,09:20:00,0,0,0,0,0,0,0,80,48,0,28,31,27
09/11/94,09:25:00,0,0,0,0,0,0,0,80,48,0,36,35,41
09/11/94,09:30:00,0,0,0,0,0,0,0,80,48,0,43,44,27
09/11/94,09:35:00,0,0,0,0,0,0,0,80,48,0,28,39,42
09/11/94,09:40:00,0,0,0,0,0,0,0,80,48,0,39,43,29
09/11/94,09:45:00,0,0,5,0,0,0,0,80,68,0,34,29,40
09/11/94,09:50:00,0,0,0,0,0,0,0,80,48,0,33,35,33
09/11/94,09:55:00,0,0,0,0,0,0,0,80,48,0,43,44,33
09/11/94,10:00:00,0,0,0,0,0,0,0,80,48,0,28,38,36
09/11/94,10:05:00,0,0,0,0,0,0,0,80,48,0,37,43,28
09/11/94,10:10:00,0,0,0,0,0,0,0,80,48,0,40,41,39
09/11/94,10:15:00,0,0,0,0,0,0,0,80,48,0,30,43,27
09/11/94,10:20:00,0,0,0,0,0,0,0,80,48,0,42,42,42
09/11/94,10:25:00,0,0,0,0,0,0,0,80,48,0,29,42,28
09/11/94,10:30:00,0,0,0,0,0,0,0,81,52,0,35,43,42
09/11/94,10:35:00,0,0,0,0,0,0,0,80,48,0,44,41,29
09/11/94,10:40:00,0,0,0,0,0,0,0,80,48,0,28,43,40
09/11/94,10:45:00,0,0,0,0,0,0,0,80,48,0,40,43,32
09/11/94,10:50:00,0,0,0,0,0,0,0,80,48,0,34,42,32
09/11/94,10:55:00,0,0,0,0,0,0,0,80,48,0,33,41,35
09/11/94,11:00:00,0,0,0,0,0,0,0,80,48,0,44,42,27
09/11/94,11:05:00,0,0,0,0,0,0,0,80,48,0,28,42,39
09/11/94,11:10:00,0,0,0,0,0,0,0,78,40,0,39,42,27
09/11/94,11:15:00,0,0,0,0,0,0,0,77,49,0,36,43,41
09/11/94,11:20:00,0,0,0,0,0,0,0,78,49,0,32,43,28
09/11/94,11:25:00,0,0,0,0,0,0,0,77,49,0,42,43,42
09/11/94,11:30:00,0,0,0,0,0,0,0,80,33,0,29,41,29
09/11/94,11:35:00,0,0,0,0,0,0,0,79,33,0,38,43,39
09/11/94,11:40:00,0,0,0,0,0,0,0,80,33,0,35,42,32
09/11/94,11:45:00,0,0,0,0,0,0,0,80,30,0,31,43,30
09/11/94,11:50:00,0,0,0,0,0,0,0,80,30,0,42,36,36
09/11/94,11:55:00,0,0,0,0,0,0,0,80,30,0,28,33,27
09/11/94,12:00:00,0,0,0,0,0,0,0,80,30,0,37,44,40
09/11/94,12:05:00,0,0,0,0,0,0,0,80,30,0,37,26,27
09/11/94,12:10:00,0,0,0,0,0,0,0,80,30,0,31,38,42
09/11/94,12:15:00,0,0,0,0,0,0,0,80,30,0,42,43,29
09/11/94,12:20:00,2,0,2,0,0,0,0,79,30,0,27,40,36
09/11/94,12:25:00,0,0,0,0,0,0,0,80,30,0,38,42,34
09/11/94,12:30:00,0,0,0,0,0,0,0,77,30,0,35,27,28
09/11/94,12:35:00,3,0,6,0,0,0,0,77,30,0,31,40,38
09/11/94,12:40:00,0,0,0,0,0,0,0,77,30,0,42,30,25
09/11/94,12:45:00,5,0,0,0,0,0,0,77,29,0,27,34,41
09/11/94,12:50:00,1,0,3,0,0,0,0,77,29,0,37,43,28
09/11/94,12:55:00,0,0,0,0,0,0,0,77,29,0,36,26,37
09/11/94,13:00:00,0,0,0,0,0,0,0,77,29,0,31,38,33
09/11/94,13:05:00,0,0,0,0,0,0,0,77,29,0,42,41,28
09/11/94,13:10:00,0,0,0,0,0,0,0,77,29,0,28,28,36
09/11/94,13:15:00,0,0,0,0,0,0,0,77,29,0,38,41,26
09/11/94,13:20:00,0,0,0,0,0,0,0,77,29,0,33,35,39
09/11/94,13:25:00,0,0,0,0,0,0,0,77,29,0,32,32,28
09/11/94,13:30:00,0,0,0,0,0,0,0,77,29,0,42,42,40
09/11/94,13:35:00,0,0,0,0,0,0,0,78,29,0,27,40,29
09/11/94,13:40:00,0,0,0,0,0,0,0,77,29,0,39,42,33
09/11/94,13:45:00,0,0,0,0,0,0,0,77,29,0,32,29,34
09/11/94,13:50:00,0,0,0,0,0,0,0,77,29,0,33,35,28
09/11/94,13:55:00,0,0,0,0,0,0,0,77,29,0,42,43,39
09/11/94,14:00:00,0,0,0,0,0,0,0,77,29,0,28,26,27
09/11/94,14:05:00,0,0,0,0,0,0,0,77,29,0,39,39,41
09/11/94,14:10:00,0,0,0,0,0,0,0,77,29,0,33,40,29
09/11/94,14:15:00,0,0,0,0,0,0,0,78,29,0,32,30,36
09/11/94,14:20:00,0,0,0,0,0,0,0,77,30,0,43,42,34
09/11/94,14:25:00,0,0,0,0,0,0,0,77,30,0,27,40,28
09/11/94,14:30:00,0,0,0,0,0,0,0,77,30,0,38,43,38
09/11/94,14:35:00,0,0,0,0,0,0,0,77,30,0,32,29,26
09/11/94,14:40:00,0,0,0,0,0,0,0,77,30,0,33,36,42
09/11/94,14:45:00,0,0,0,0,0,0,0,77,30,0,43,44,28
09/11/94,14:50:00,0,0,0,0,0,0,0,77,30,0,27,26,39
09/11/94,14:55:00,0,0,0,0,0,0,0,77,30,0,39,39,32
09/11/94,15:00:00,0,0,0,0,0,0,0,77,30,0,32,35,29
09/11/94,15:05:00,0,0,0,0,0,0,0,77,30,0,32,31,36
09/11/94,15:10:00,0,0,0,0,0,0,0,77,30,0,43,42,26
09/11/94,15:15:00,0,0,0,0,0,0,0,77,30,0,28,39,40
09/11/94,15:20:00,0,0,0,0,0,0,0,77,30,0,39,43,28
09/11/94,15:25:00,0,0,0,0,0,0,0,77,30,0,32,28,39
09/11/94,15:30:00,0,0,0,0,0,0,0,77,30,0,33,38,32
09/11/94,15:35:00,0,0,0,0,0,0,0,77,30,0,42,39,30
09/11/94,15:40:00,0,0,0,0,0,0,0,77,30,0,29,29,36
09/11/94,15:45:00,0,0,0,0,0,0,0,77,30,0,40,41,28
09/11/94,15:50:00,0,0,0,0,0,0,0,78,30,0,31,40,38
09/11/94,15:55:00,0,0,0,0,0,0,0,77,30,0,34,43,27
09/11/94,16:00:00,0,0,0,0,0,0,0,77,30,0,41,39,40
09/11/94,16:05:00,0,0,0,0,0,0,0,77,30,0,27,40,29
09/11/94,16:10:00,0,0,0,0,0,0,0,77,30,0,39,30,37
09/11/94,16:15:00,0,0,0,0,0,0,0,77,30,0,36,43,34
09/11/94,16:20:00,0,0,0,0,0,0,0,77,30,0,31,28,28
09/11/94,16:25:00,0,0,0,0,0,0,0,77,72,0,42,35,37
09/11/94,16:30:00,0,0,0,0,0,0,0,77,30,0,27,44,26
09/11/94,16:35:00,0,0,0,0,0,0,0,77,30,0,36,39,41
09/11/94,16:40:00,0,0,0,0,0,0,0,77,30,0,39,43,28
09/11/94,16:45:00,0,0,0,0,0,0,0,77,30,0,29,29,40
09/11/94,16:50:00,0,0,0,0,0,0,0,77,30,0,41,36,32
09/11/94,16:55:00,0,0,0,0,0,0,0,77,30,0,27,43,29
09/11/94,17:00:00,0,0,0,0,0,0,0,77,30,0,35,27,37
09/11/94,17:05:00,0,0,0,0,0,0,0,77,30,0,42,41,27
09/11/94,17:10:00,0,0,0,0,0,0,0,77,29,0,29,43,40
09/11/94,17:15:00,0,0,0,0,0,0,0,77,29,0,41,39,26
09/11/94,17:20:00,0,0,0,0,0,0,0,77,30,0,29,41,41
09/11/94,17:25:00,0,0,0,0,0,0,0,77,30,0,35,41,28
09/11/94,17:30:00,0,0,0,0,0,0,0,77,30,0,38,38,36
09/11/94,17:35:00,0,0,0,0,0,0,0,77,30,0,30,32,34
09/11/94,17:40:00,0,0,0,0,0,0,0,77,30,0,41,42,31
09/11/94,17:45:00,0,0,0,0,0,0,0,77,30,0,28,40,36
09/11/94,17:50:00,0,0,0,0,0,0,0,77,30,0,36,43,26
09/11/94,17:55:00,0,0,0,0,0,0,0,77,30,0,38,28,39
09/11/94,18:00:00,0,0,0,0,0,0,0,77,30,0,30,40,27
09/11/94,18:05:00,0,0,0,0,0,0,0,77,30,0,42,37,41
09/11/94,18:10:00,0,0,0,0,0,0,0,77,30,0,28,33,30
09/11/94,18:15:00,0,0,0,0,0,0,0,77,30,0,38,44,35
09/11/94,18:20:00,0,0,0,0,0,0,0,77,30,0,36,27,33
09/11/94,18:25:00,0,0,0,0,0,0,0,77,30,0,31,37,30
09/11/94,18:30:00,0,0,0,0,0,0,0,77,30,0,43,43,37
09/11/94,18:35:00,0,0,0,0,0,0,0,78,30,0,27,29,27
09/11/94,18:40:00,0,0,0,0,0,0,0,77,30,0,39,41,42
09/11/94,18:45:00,0,0,0,0,0,0,0,77,30,0,33,31,27
09/11/94,18:50:00,0,0,0,0,0,0,0,77,30,0,33,34,42
09/11/94,18:55:00,0,0,0,0,0,0,0,77,30,0,43,44,30
09/11/94,19:00:00,4,0,0,0,0,0,0,77,30,0,26,28,37
09/11/94,19:05:00,0,0,0,0,0,0,0,78,30,0,39,37,34
09/11/94,19:10:00,0,0,0,0,0,0,0,77,30,0,34,44,27
09/11/94,19:15:00,0,0,0,0,0,0,0,77,30,0,33,38,37
09/11/94,19:20:00,0,0,0,0,0,0,0,77,30,0,43,44,26
09/11/94,19:25:00,0,0,0,0,0,0,0,77,30,0,27,27,40
09/11/94,19:30:00,0,0,2,0,0,0,0,77,30,0,39,39,27
09/11/94,19:35:00,0,0,0,0,0,0,0,77,30,0,32,38,40
09/11/94,19:40:00,0,0,0,0,0,0,0,77,30,0,33,30,29
09/11/94,19:45:00,0,0,0,0,0,0,0,80,30,0,43,42,37
09/11/94,19:50:00,0,0,0,0,0,0,0,80,30,0,27,39,33
09/11/94,19:55:00,0,0,0,0,0,0,0,124,35,0,39,40,36
09/11/94,20:00:00,0,0,0,0,0,0,0,87,39,0,42,43,34
09/11/94,20:05:00,0,0,0,0,0,0,0,81,35,0,40,41,29
09/11/94,20:10:00,0,0,0,0,0,0,0,81,35,0,42,42,37
09/11/94,20:15:00,0,0,0,0,0,0,0,81,35,0,41,40,27
09/11/94,20:20:00,0,0,0,0,0,0,0,81,35,0,41,32,39
09/11/94,20:25:00,0,0,0,0,0,0,0,81,35,0,34,43,27
09/11/94,20:30:00,0,0,0,0,0,0,1,81,50,0,35,40,42
09/11/94,20:35:00,0,0,0,0,0,0,1,81,50,0,44,45,28
09/11/94,20:40:00,0,0,0,0,0,0,1,81,50,0,28,37,43
09/11/94,20:45:00,0,0,0,0,0,1,2,81,50,0,40,46,29
09/11/94,20:50:00,0,0,0,0,1,1,2,81,51,0,35,27,42
09/11/94,20:55:00,0,0,0,0,1,1,3,81,50,0,33,37,31
09/11/94,21:00:00,0,0,0,0,1,1,3,81,50,0,43,44,37
09/11/94,21:05:00,0,0,0,0,2,1,4,81,50,0,41,38,34
09/11/94,21:10:00,0,0,0,0,2,2,4,81,50,0,43,45,32
09/11/94,21:15:00,0,0,0,0,2,2,5,81,50,0,43,27,34
09/11/94,21:20:00,0,0,0,0,3,2,6,81,50,0,43,39,31
09/11/94,21:25:00,0,0,0,0,3,2,6,81,50,0,42,40,36
09/11/94,21:30:00,0,0,0,0,4,3,7,81,50,0,41,43,28
09/11/94,21:35:00,0,0,0,0,4,3,8,81,50,0,30,33,40
09/11/94,21:40:00,0,0,0,0,5,3,8,81,50,0,42,39,28
09/11/94,21:45:00,0,0,0,0,5,3,9,81,50,0,34,45,42
09/11/94,21:50:00,0,0,0,0,5,4,9,81,50,0,34,28,29
09/11/94,21:55:00,0,0,0,0,6,4,10,81,50,0,43,41,43
09/11/94,22:00:00,0,0,0,0,6,4,11,81,50,0,29,44,29
09/11/94,22:05:00,0,0,0,0,7,4,12,81,50,0,39,38,41
09/11/94,22:10:00,0,0,0,0,7,4,12,81,50,0,34,44,31
09/11/94,22:15:00,0,0,0,0,8,4,12,81,50,0,32,28,38
09/11/94,22:20:00,0,0,0,0,8,4,12,81,50,0,43,41,34
09/11/94,22:25:00,0,0,0,0,8,4,13,81,50,0,29,39,29
09/11/94,22:30:00,0,0,0,0,9,5,13,81,50,0,36,44,38
09/11/94,22:35:00,0,0,0,0,9,5,14,81,50,0,40,29,27
09/11/94,22:40:00,0,0,0,0,8,5,14,81,50,0,31,35,40
09/11/94,22:45:00,0,0,0,0,9,5,14,81,50,0,43,45,28
09/11/94,22:50:00,0,0,0,0,9,5,14,81,50,0,29,27,42
09/11/94,22:55:00,0,0,0,0,9,5,15,81,50,0,37,39,29
09/11/94,23:00:00,0,0,0,0,10,6,16,81,50,0,40,43,42
09/11/94,23:05:00,0,0,0,0,10,6,16,81,50,0,31,40,30
09/11/94,23:10:00,0,0,0,0,10,6,16,81,50,0,41,44,37
09/11/94,23:15:00,0,0,0,0,10,6,16,81,50,0,30,29,32
09/11/94,23:20:00,0,0,0,0,10,6,16,81,50,0,37,40,34
09/11/94,23:25:00,0,0,0,0,10,6,16,81,50,0,41,42,35
09/11/94,23:30:00,0,0,0,0,10,6,16,81,50,0,29,30,28
09/11/94,23:35:00,0,0,0,0,10,6,16,81,50,0,41,42,39
09/11/94,23:40:00,0,0,0,0,10,6,16,81,50,0,30,29,27
09/11/94,23:45:00,0,0,0,0,10,6,16,84,50,0,35,34,41
09/11/94,23:50:00,0,0,0,0,10,6,16,84,50,0,44,44,27
09/11/94,23:55:00,0,0,0,0,10,6,17,84,50,0,29,41,42
09/12/94,00:00:00,0,0,0,0,11,6,17,84,50,0,40,42,28
